This is the latest recevied weather packets stored in our database for station/object YM2KA-13. If no packets are shown the sender has not sent any weather packets the latest 10 day(s).
| Time | Temp. | Humidity | Pressure | Rain* | Wind** | Luminosity | Snow |
|---|---|---|---|---|---|---|---|
| 1777911819 | 5° C | 79% | 1008.6 hPa | 0 mm | - | - | - |
| 1777911738 | 5° C | 79% | 1008.6 hPa | 0 mm | - | - | - |
| 1777911221 | 5° C | 78% | 1008.5 hPa | 0 mm | - | - | - |
| 1777910845 | 5° C | 79% | 1008.3 hPa | 0 mm | - | - | - |
| 1777910621 | 5° C | 78% | 1008.3 hPa | 0 mm | - | - | - |
| 1777910023 | 5° C | 79% | 1008.1 hPa | 0 mm | - | - | - |
| 1777909942 | 5° C | 79% | 1008.1 hPa | 0 mm | - | - | - |
| 1777909424 | 5° C | 79% | 1008 hPa | 0 mm | - | - | - |
| 1777909038 | 5° C | 82% | 1007.9 hPa | 0 mm | - | - | - |
| 1777908824 | 5° C | 82% | 1007.9 hPa | 0 mm | - | - | - |
| 1777908226 | 5.56° C | 79% | 1007.8 hPa | 0 mm | - | - | - |
| 1777908145 | 5.56° C | 79% | 1007.8 hPa | 0 mm | - | - | - |
| 1777907627 | 5.56° C | 77% | 1007.7 hPa | 0 mm | - | - | - |
| 1777907241 | 5.56° C | 77% | 1007.6 hPa | 0 mm | - | - | - |
| 1777907017 | 5.56° C | 77% | 1007.7 hPa | 0 mm | - | - | - |
| 1777906419 | 5.56° C | 78% | 1007.5 hPa | 0 mm | - | - | - |
| 1777906338 | 5.56° C | 78% | 1007.6 hPa | 0 mm | - | - | - |
| 1777905820 | 5.56° C | 77% | 1007.5 hPa | 0 mm | - | - | - |
| 1777905445 | 6.11° C | 78% | 1007.4 hPa | 0 mm | - | - | - |
| 1777905221 | 6.11° C | 78% | 1007.3 hPa | 0 mm | - | - | - |
| 1777904623 | 6.11° C | 78% | 1007.3 hPa | 0 mm | - | - | - |
| 1777904541 | 6.11° C | 78% | 1007.2 hPa | 0 mm | - | - | - |
| 1777904024 | 6.11° C | 78% | 1007.1 hPa | 0 mm | - | - | - |
| 1777903638 | 6.11° C | 79% | 1007.1 hPa | 0 mm | - | - | - |
| 1777903424 | 6.11° C | 79% | 1007 hPa | 0 mm | - | - | - |
* Rain latest hour (hover to see other rain measurements)
** Current wind speed in m/s (hover to see current wind gust speed)